KAZSAT-2

Last updated on Wed Sep 17 2025 00:02:47 GMT+0000 (Coordinated Universal Time)

1 37749U 11035B 25259.52947844 -.00000217 00000+0 00000+0 0 9995 2 37749 0.0143 103.2270 0001375 133.1467 36.4823 1.00271814 50652
UTC large
Height (km)
Speed (km/s)
/
Latitude / Longitude
Inclination (degrees)
Orbital Period (minutes)
Azimuth
Elevation
Range (km)
Doppler Factor

Next 0 passes for location: London (51.5072 / 0.1276)

Sorry there are no passes over London.